Flag for South Georgia/Sandwich Is.

Past Weather in King Edward Point, South Georgia/Sandwich Is. — Yesterday and Last 2 Weeks

Now
24 °F

Cold.


Feels Like: 13 °F
Forecast: 26 / 18 °F
Wind: 10 mph from Southwest

Location: Bird Island, South Georgia

Current Time: Jul 15, 2020 at 1:16:41 am

Latest Report: Jul 15, 2020 at 12:00 am


Visibility: N/A

Pressure: 29.41 "Hg

Humidity: 82%

Dew Point: 19 °F

Location of King Edward PointLocation

Past Weather in King Edward Point — Graph

°F

King Edward Point Temperature Yesterday

Maximum temperature yesterday: 30 °F (at 3:00 am)
Minimum temperature yesterday: 24 °F (at 11:00 pm)
Average temperature yesterday: 27 °F

High & Low Weather Summary for the Past Weeks

 TemperatureHumidityPressure
High35 °F (Jul 13, 7:00 am)96% (Jul 5, 6:00 am)30.24 "Hg (Jul 5, 6:00 am)
Low20 °F (Jul 10, 9:00 pm)61% (Jun 30, 1:00 am)29.23 "Hg (Jul 12, 12:00 pm)
Average27 °F80%29.66 "Hg
* Reported Jun 29 11:00 pm — Jul 14 11:00 pm, King Edward Point. Weather by CustomWeather, © 2020

Note: Actual official high and low records may vary slightly from our data, if they occured in-between our weather recording intervals... More about our weather records

King Edward Point Weather History for the Previous 24 Hours

Scroll right to see more
 ConditionsComfort  
Time TempWeatherWind HumidityBarometerVisibility
11:00 pm
Tue, Jul 14
24 °FCold.12 mph79%29.41 "HgN/A
10:00 pm24 °FCold.10 mph75%29.41 "HgN/A
9:00 pm25 °FChilly.10 mph78%29.41 "HgN/A
6:00 pm26 °FChilly.9 mph81%29.41 "HgN/A
5:00 pm26 °FChilly.9 mph82%29.41 "HgN/A
3:00 pm26 °FChilly.9 mph81%29.41 "HgN/A
1:00 pm27 °FChilly.8 mph70%29.41 "HgN/A
12:00 pm27 °FChilly.7 mph70%29.41 "HgN/A
11:00 am27 °FChilly.7 mph69%29.41 "HgN/A
10:00 am28 °FChilly.8 mph73%29.41 "HgN/A
9:00 am28 °FChilly.8 mph74%29.38 "HgN/A
7:00 am29 °FChilly.6 mph72%29.38 "HgN/A
5:00 am29 °FChilly.2 mph68%29.35 "HgN/A
4:00 am30 °FChilly.5 mph69%29.35 "HgN/A
3:00 am30 °FChilly.5 mph71%29.35 "HgN/A
2:00 am29 °FChilly.1 mph74%29.35 "HgN/A
1:00 am30 °FChilly.5 mph73%29.32 "HgN/A
Weather by CustomWeather, © 2020

See weather overview